KLM14G EHAM-LSZR

Flight info

Callsign KLM14G
Flight time 1h 7m
Altitude 23000
Route EDUPO Z739 MISGO DCT ASBON DCT TUSUK DCT ULNOK L607 SUNEG T721 SUL Z714 LEBSO N851 LOKTA T122 ARFAS T732 GARMO
Aircraft E170/M-SDE3GILORVW/S

Departure

Time 2026-05-06 10:58
Airport Amsterdam Airport Schiphol (EHAM)

Arrival

Time 2026-05-06 12:06
Airport Sankt Gallen Altenrhein Airport (LSZR)
Time Latitude Longitude Altitude Speed Heading
2026-05-06 10:34 52.30226 4.76143 0 ft 0 kts 238°
2026-05-06 10:47 52.30227 4.76145 0 ft 1 kts 238°
2026-05-06 10:48 52.30235 4.76166 -1 ft 2 kts 238°
2026-05-06 10:48 52.30243 4.76186 0 ft 2 kts 238°
2026-05-06 10:48 52.30253 4.76203 0 ft 2 kts 198°
2026-05-06 10:48 52.30267 4.76200 0 ft 2 kts 144°
2026-05-06 10:49 52.30277 4.76190 0 ft 0 kts 148°
2026-05-06 10:51 52.30274 4.76192 0 ft 1 kts 148°
2026-05-06 10:51 52.30257 4.76210 0 ft 4 kts 147°
2026-05-06 10:52 52.30225 4.76243 -1 ft 6 kts 147°
2026-05-06 10:52 52.30183 4.76232 -2 ft 7 kts 237°
2026-05-06 10:52 52.30151 4.76148 -2 ft 8 kts 239°
2026-05-06 10:52 52.30121 4.76066 0 ft 7 kts 239°
2026-05-06 10:53 52.30092 4.75986 0 ft 9 kts 238°
2026-05-06 10:53 52.30055 4.75890 -1 ft 10 kts 239°
2026-05-06 10:53 52.30012 4.75779 -2 ft 12 kts 237°
2026-05-06 10:53 52.29961 4.75649 -3 ft 14 kts 239°
2026-05-06 10:54 52.29912 4.75512 -1 ft 13 kts 239°
2026-05-06 10:54 52.29856 4.75376 -2 ft 15 kts 238°
2026-05-06 10:54 52.29837 4.75215 0 ft 14 kts 291°
2026-05-06 10:54 52.29893 4.75096 0 ft 13 kts 312°
2026-05-06 10:55 52.29958 4.74978 0 ft 14 kts 311°
2026-05-06 10:55 52.30028 4.74849 0 ft 16 kts 310°
2026-05-06 10:55 52.30107 4.74702 -3 ft 19 kts 314°
2026-05-06 10:55 52.30203 4.74525 -8 ft 22 kts 311°
2026-05-06 10:56 52.30309 4.74327 -12 ft 24 kts 311°
2026-05-06 10:56 52.30417 4.74128 -14 ft 17 kts 309°
2026-05-06 10:56 52.30408 4.73986 -12 ft 10 kts 255°
2026-05-06 10:56 52.30408 4.73916 -12 ft 1 kts 272°
2026-05-06 10:57 52.30408 4.73911 -12 ft 0 kts 273°
2026-05-06 10:57 52.30409 4.73888 -12 ft 3 kts 273°
2026-05-06 10:57 52.30410 4.73833 -12 ft 6 kts 273°
2026-05-06 10:57 52.30428 4.73759 -11 ft 7 kts 337°
2026-05-06 10:58 52.30553 4.73766 -11 ft 46 kts
2026-05-06 10:58 52.31105 4.73817 -6 ft 110 kts
2026-05-06 10:58 52.32027 4.73903 128 ft 144 kts
2026-05-06 10:58 52.33024 4.74038 682 ft 149 kts
2026-05-06 10:59 52.34031 4.74235 1363 ft 147 kts 15°
2026-05-06 10:59 52.35086 4.74739 1696 ft 178 kts 20°
2026-05-06 10:59 52.36312 4.75425 2213 ft 201 kts 25°
2026-05-06 10:59 52.37541 4.76615 3075 ft 207 kts 38°
2026-05-06 11:00 52.38647 4.78140 3780 ft 221 kts 43°
2026-05-06 11:00 52.39793 4.79960 4423 ft 238 kts 45°
2026-05-06 11:00 52.40945 4.81967 5179 ft 242 kts 48°
2026-05-06 11:00 52.42029 4.84155 5450 ft 255 kts 64°
2026-05-06 11:01 52.42359 4.86968 5771 ft 259 kts 87°
2026-05-06 11:01 52.42376 4.89969 5872 ft 262 kts 87°
2026-05-06 11:01 52.42389 4.92921 5879 ft 261 kts 87°
2026-05-06 11:01 52.42399 4.95969 6129 ft 276 kts 89°
2026-05-06 11:02 52.41835 4.98975 6876 ft 286 kts 123°
2026-05-06 11:02 52.40391 5.01156 7782 ft 286 kts 142°
2026-05-06 11:02 52.38807 5.03023 8664 ft 285 kts 142°
2026-05-06 11:02 52.37191 5.04907 9465 ft 287 kts 143°
2026-05-06 11:03 52.35573 5.06785 10198 ft 292 kts 143°
2026-05-06 11:03 52.33901 5.08726 10850 ft 300 kts 141°
2026-05-06 11:03 52.32398 5.11164 11406 ft 310 kts 130°
2026-05-06 11:03 52.30937 5.13831 11969 ft 321 kts 131°
2026-05-06 11:04 52.29430 5.16574 12583 ft 331 kts 131°
2026-05-06 11:04 52.27903 5.19350 13283 ft 336 kts 131°
2026-05-06 11:04 52.26332 5.22203 14049 ft 340 kts 131°
2026-05-06 11:04 52.24744 5.25089 14847 ft 343 kts 130°
2026-05-06 11:05 52.23322 5.28196 15644 ft 345 kts 125°
2026-05-06 11:05 52.21953 5.31358 16401 ft 347 kts 125°
2026-05-06 11:05 52.20564 5.34558 17116 ft 350 kts 126°
2026-05-06 11:05 52.19152 5.37810 17799 ft 353 kts 126°
2026-05-06 11:06 52.17722 5.41097 18475 ft 356 kts 126°
2026-05-06 11:06 52.16309 5.44338 19137 ft 359 kts 126°
2026-05-06 11:06 52.14849 5.47685 19783 ft 362 kts 126°
2026-05-06 11:06 52.13398 5.51009 20397 ft 365 kts 126°
2026-05-06 11:07 52.11929 5.54368 20997 ft 368 kts 126°
2026-05-06 11:07 52.10456 5.57733 21576 ft 371 kts 126°
2026-05-06 11:07 52.08959 5.61147 22163 ft 373 kts 126°
2026-05-06 11:07 52.07456 5.64570 22721 ft 372 kts 126°
2026-05-06 11:08 52.05893 5.67999 22833 ft 381 kts 131°
2026-05-06 11:08 52.04129 5.71321 22867 ft 398 kts 132°
2026-05-06 11:08 52.02294 5.74747 22853 ft 404 kts 132°
2026-05-06 11:08 52.00465 5.78159 22846 ft 403 kts 131°
2026-05-06 11:09 51.98630 5.81577 22848 ft 402 kts 131°
2026-05-06 11:09 51.96801 5.84987 22846 ft 402 kts 131°
2026-05-06 11:09 51.94973 5.88404 22845 ft 402 kts 131°
2026-05-06 11:09 51.93147 5.91811 22846 ft 402 kts 131°
2026-05-06 11:10 51.91326 5.95206 22843 ft 404 kts 131°
2026-05-06 11:10 51.89478 5.98643 22848 ft 405 kts 131°
2026-05-06 11:10 51.87640 6.02060 22851 ft 405 kts 131°
2026-05-06 11:10 51.85774 6.05523 22845 ft 404 kts 131°
2026-05-06 11:11 51.83946 6.08890 22846 ft 404 kts 131°
2026-05-06 11:11 51.82081 6.12317 22845 ft 404 kts 131°
2026-05-06 11:11 51.80237 6.15702 22844 ft 406 kts 131°
2026-05-06 11:11 51.78389 6.19089 22847 ft 404 kts 131°
2026-05-06 11:12 51.76518 6.22513 22841 ft 405 kts 131°
2026-05-06 11:12 51.74664 6.25899 22844 ft 405 kts 131°
2026-05-06 11:12 51.72806 6.29288 22842 ft 406 kts 131°
2026-05-06 11:12 51.70950 6.32667 22848 ft 405 kts 131°
2026-05-06 11:13 51.69091 6.36050 22847 ft 406 kts 131°
2026-05-06 11:13 51.67205 6.39476 22846 ft 406 kts 131°
2026-05-06 11:13 51.65358 6.42826 22847 ft 404 kts 131°
2026-05-06 11:13 51.63481 6.46227 22847 ft 405 kts 131°
2026-05-06 11:14 51.61618 6.49600 22843 ft 407 kts 131°
2026-05-06 11:14 51.59730 6.53014 22837 ft 407 kts 131°
2026-05-06 11:14 51.57867 6.56378 22836 ft 407 kts 131°
2026-05-06 11:14 51.55981 6.59779 22843 ft 407 kts 131°
2026-05-06 11:15 51.54108 6.63151 22833 ft 405 kts 131°
2026-05-06 11:15 51.52227 6.66534 22832 ft 407 kts 133°
2026-05-06 11:15 51.50359 6.69888 22826 ft 405 kts 132°
2026-05-06 11:15 51.48482 6.73255 22825 ft 406 kts 133°
2026-05-06 11:16 51.46595 6.76635 22833 ft 407 kts 132°
2026-05-06 11:16 51.44712 6.80004 22818 ft 406 kts 132°
2026-05-06 11:16 51.42836 6.83355 22818 ft 406 kts 132°
2026-05-06 11:16 51.40940 6.86689 22817 ft 406 kts 136°
2026-05-06 11:17 51.38691 6.89343 22831 ft 405 kts 148°
2026-05-06 11:17 51.36314 6.91764 22819 ft 404 kts 148°
2026-05-06 11:17 51.33939 6.94164 22818 ft 404 kts 148°
2026-05-06 11:17 51.31584 6.96536 22816 ft 404 kts 148°
2026-05-06 11:18 51.29199 6.98935 22817 ft 404 kts 148°
2026-05-06 11:18 51.26842 7.01302 22815 ft 403 kts 148°
2026-05-06 11:18 51.24450 7.03700 22810 ft 403 kts 148°
2026-05-06 11:18 51.22106 7.06048 22804 ft 404 kts 148°
2026-05-06 11:19 51.19711 7.08445 22807 ft 404 kts 148°
2026-05-06 11:19 51.17337 7.10817 22799 ft 405 kts 148°
2026-05-06 11:19 51.14975 7.13174 22797 ft 405 kts 148°
2026-05-06 11:19 51.12583 7.15559 22795 ft 404 kts 148°
2026-05-06 11:20 51.10229 7.17902 22793 ft 404 kts 148°
2026-05-06 11:20 51.07844 7.20274 22793 ft 403 kts 148°
2026-05-06 11:20 51.05469 7.22632 22795 ft 403 kts 148°
2026-05-06 11:20 51.03110 7.24972 22792 ft 403 kts 148°
2026-05-06 11:21 51.00724 7.27335 22789 ft 402 kts 148°
2026-05-06 11:21 50.98363 7.29672 22790 ft 402 kts 148°
2026-05-06 11:21 50.96000 7.32007 22792 ft 402 kts 148°
2026-05-06 11:21 50.93599 7.34377 22791 ft 402 kts 148°
2026-05-06 11:22 50.91230 7.36713 22790 ft 402 kts 148°
2026-05-06 11:22 50.88868 7.39038 22798 ft 402 kts 148°
2026-05-06 11:22 50.86495 7.41372 22796 ft 402 kts 149°
2026-05-06 11:22 50.84112 7.43713 22789 ft 402 kts 149°
2026-05-06 11:23 50.81766 7.46014 22789 ft 402 kts 149°
2026-05-06 11:23 50.79378 7.48354 22790 ft 402 kts 149°
2026-05-06 11:23 50.77030 7.50652 22793 ft 401 kts 149°
2026-05-06 11:23 50.74647 7.52982 22788 ft 402 kts 149°
2026-05-06 11:24 50.72294 7.55288 22780 ft 403 kts 148°
2026-05-06 11:24 50.69936 7.57731 22778 ft 403 kts 148°
2026-05-06 11:24 50.67599 7.60156 22769 ft 404 kts 148°
2026-05-06 11:24 50.65274 7.62564 22772 ft 403 kts 148°
2026-05-06 11:25 50.62922 7.64998 22771 ft 403 kts 148°
2026-05-06 11:25 50.60592 7.67406 22772 ft 403 kts 148°
2026-05-06 11:25 50.58261 7.69812 22770 ft 403 kts 149°
2026-05-06 11:25 50.55903 7.72243 22774 ft 402 kts 149°
2026-05-06 11:26 50.53573 7.74643 22773 ft 402 kts 149°
2026-05-06 11:26 50.51249 7.77033 22776 ft 403 kts 149°
2026-05-06 11:26 50.48907 7.79440 22775 ft 402 kts 149°
2026-05-06 11:26 50.46574 7.81832 22779 ft 403 kts 149°
2026-05-06 11:27 50.44225 7.84240 22781 ft 404 kts 149°
2026-05-06 11:27 50.41897 7.86623 22779 ft 404 kts 149°
2026-05-06 11:27 50.39537 7.89036 22776 ft 404 kts 149°
2026-05-06 11:27 50.37202 7.91420 22782 ft 405 kts 149°
2026-05-06 11:28 50.34834 7.93835 22773 ft 404 kts 149°
2026-05-06 11:28 50.32479 7.96235 22774 ft 404 kts 150°
2026-05-06 11:28 50.30150 7.98605 22778 ft 404 kts 150°
2026-05-06 11:28 50.27787 8.01005 22777 ft 403 kts 150°
2026-05-06 11:29 50.25431 8.03397 22782 ft 404 kts 149°
2026-05-06 11:29 50.23076 8.05785 22783 ft 404 kts 150°
2026-05-06 11:29 50.20727 8.08163 22776 ft 404 kts 150°
2026-05-06 11:29 50.18381 8.10536 22782 ft 404 kts 150°
2026-05-06 11:30 50.16033 8.12908 22777 ft 404 kts 150°
2026-05-06 11:30 50.13689 8.15269 22767 ft 404 kts 150°
2026-05-06 11:30 50.11300 8.17506 22777 ft 403 kts 152°
2026-05-06 11:30 50.08888 8.19742 22767 ft 403 kts 152°
2026-05-06 11:31 50.06473 8.21981 22778 ft 404 kts 152°
2026-05-06 11:31 50.04063 8.24211 22774 ft 404 kts 152°
2026-05-06 11:31 50.01653 8.26441 22772 ft 403 kts 152°
2026-05-06 11:31 49.99238 8.28671 22773 ft 403 kts 152°
2026-05-06 11:32 49.96837 8.30886 22774 ft 403 kts 152°
2026-05-06 11:32 49.94458 8.33078 22768 ft 403 kts 152°
2026-05-06 11:32 49.92042 8.35301 22769 ft 402 kts 152°
2026-05-06 11:32 49.89631 8.37518 22768 ft 403 kts 152°
2026-05-06 11:33 49.87235 8.39717 22779 ft 403 kts 152°
2026-05-06 11:33 49.84883 8.42012 22751 ft 405 kts 143°
2026-05-06 11:33 49.82794 8.44942 22773 ft 406 kts 139°
2026-05-06 11:33 49.80757 8.47907 22766 ft 405 kts 139°
2026-05-06 11:34 49.78706 8.50894 22772 ft 404 kts 139°
2026-05-06 11:34 49.76658 8.53874 22768 ft 404 kts 139°
2026-05-06 11:34 49.74633 8.56815 22770 ft 404 kts 139°
2026-05-06 11:34 49.72526 8.59649 22753 ft 400 kts 150°
2026-05-06 11:35 49.69978 8.61249 22803 ft 393 kts 169°
2026-05-06 11:35 49.67326 8.62094 22778 ft 392 kts 171°
2026-05-06 11:35 49.64644 8.62873 22774 ft 391 kts 172°
2026-05-06 11:35 49.61968 8.63628 22777 ft 391 kts 172°
2026-05-06 11:36 49.59292 8.64374 22778 ft 392 kts 172°
2026-05-06 11:36 49.56620 8.65117 22782 ft 392 kts 172°
2026-05-06 11:36 49.53954 8.65857 22783 ft 392 kts 172°
2026-05-06 11:36 49.51285 8.66597 22783 ft 391 kts 172°
2026-05-06 11:37 49.48591 8.67341 22785 ft 391 kts 172°
2026-05-06 11:37 49.45959 8.68364 22772 ft 393 kts 160°
2026-05-06 11:37 49.43475 8.70046 22791 ft 395 kts 158°
2026-05-06 11:37 49.40950 8.71799 22786 ft 395 kts 158°
2026-05-06 11:38 49.38475 8.73519 22779 ft 395 kts 158°
2026-05-06 11:38 49.35976 8.75256 22779 ft 394 kts 158°
2026-05-06 11:38 49.33478 8.76990 22773 ft 394 kts 158°
2026-05-06 11:38 49.31016 8.78697 22771 ft 392 kts 158°
2026-05-06 11:39 49.28529 8.80420 22772 ft 393 kts 158°
2026-05-06 11:39 49.26025 8.82153 22769 ft 392 kts 158°
2026-05-06 11:39 49.23566 8.83852 22767 ft 392 kts 158°
2026-05-06 11:39 49.21073 8.85473 22757 ft 390 kts 166°
2026-05-06 11:40 49.18399 8.85829 22797 ft 387 kts 186°
2026-05-06 11:40 49.15732 8.85236 22781 ft 386 kts 190°
2026-05-06 11:40 49.13117 8.84556 22767 ft 386 kts 191°
2026-05-06 11:40 49.10452 8.83842 22770 ft 386 kts 191°
2026-05-06 11:41 49.07835 8.83133 22768 ft 387 kts 191°
2026-05-06 11:41 49.05174 8.82410 22772 ft 387 kts 191°
2026-05-06 11:41 49.02538 8.81695 22765 ft 386 kts 191°
2026-05-06 11:41 48.99886 8.80975 22769 ft 386 kts 191°
2026-05-06 11:42 48.97235 8.80256 22769 ft 387 kts 191°
2026-05-06 11:42 48.94594 8.79541 22770 ft 386 kts 190°
2026-05-06 11:42 48.91972 8.78832 22772 ft 387 kts 190°
2026-05-06 11:42 48.89300 8.78110 22773 ft 388 kts 190°
2026-05-06 11:43 48.86668 8.77401 22781 ft 388 kts 190°
2026-05-06 11:43 48.84020 8.76689 22780 ft 388 kts 190°
2026-05-06 11:43 48.81368 8.75977 22781 ft 387 kts 191°
2026-05-06 11:44 48.76085 8.74561 22783 ft 385 kts 190°
2026-05-06 11:44 48.73447 8.73855 22782 ft 385 kts 191°
2026-05-06 11:44 48.70785 8.73143 22782 ft 385 kts 191°
2026-05-06 11:44 48.68153 8.72440 22780 ft 386 kts 190°
2026-05-06 11:45 48.65517 8.71737 22778 ft 386 kts 190°
2026-05-06 11:45 48.62893 8.71038 22778 ft 388 kts 190°
2026-05-06 11:45 48.60249 8.70334 22776 ft 388 kts 190°
2026-05-06 11:45 48.57578 8.69624 22788 ft 387 kts 190°
2026-05-06 11:46 48.54948 8.68923 22797 ft 387 kts 190°
2026-05-06 11:46 48.52311 8.68225 22800 ft 388 kts 190°
2026-05-06 11:46 48.49664 8.67524 22800 ft 386 kts 190°
2026-05-06 11:46 48.47007 8.66821 22798 ft 386 kts 190°
2026-05-06 11:47 48.44378 8.66125 22800 ft 386 kts 190°
2026-05-06 11:47 48.41733 8.65426 22806 ft 387 kts 190°
2026-05-06 11:47 48.39068 8.65191 22796 ft 387 kts 172°
2026-05-06 11:47 48.36530 8.66526 22818 ft 391 kts 150°
2026-05-06 11:48 48.34300 8.68862 22812 ft 393 kts 146°
2026-05-06 11:48 48.32117 8.71280 22796 ft 390 kts 145°
2026-05-06 11:48 48.29953 8.73698 22783 ft 379 kts 145°
2026-05-06 11:48 48.27866 8.76032 22788 ft 379 kts 145°
2026-05-06 11:49 48.25740 8.78410 22792 ft 379 kts 145°
2026-05-06 11:49 48.23650 8.80748 22671 ft 381 kts 145°
2026-05-06 11:49 48.21513 8.83133 21464 ft 390 kts 145°
2026-05-06 11:49 48.19340 8.85558 20418 ft 386 kts 145°
2026-05-06 11:50 48.17241 8.87898 19891 ft 370 kts 145°
2026-05-06 11:50 48.15210 8.90160 19396 ft 358 kts 145°
2026-05-06 11:50 48.13241 8.92351 18939 ft 356 kts 146°
2026-05-06 11:50 48.11245 8.94569 18470 ft 355 kts 145°
2026-05-06 11:51 48.09283 8.96745 18000 ft 354 kts 146°
2026-05-06 11:51 48.07311 8.98933 17531 ft 352 kts 146°
2026-05-06 11:51 48.05353 9.01102 17066 ft 349 kts 146°
2026-05-06 11:51 48.03427 9.03234 16606 ft 346 kts 146°
2026-05-06 11:52 48.01502 9.05363 16149 ft 342 kts 146°
2026-05-06 11:52 47.99596 9.07469 15689 ft 339 kts 146°
2026-05-06 11:52 47.97737 9.09521 15251 ft 336 kts 146°
2026-05-06 11:52 47.95877 9.11573 14803 ft 333 kts 146°
2026-05-06 11:53 47.94023 9.13615 14370 ft 330 kts 146°
2026-05-06 11:53 47.92187 9.15636 13948 ft 327 kts 146°
2026-05-06 11:53 47.90363 9.17641 13504 ft 325 kts 146°
2026-05-06 11:53 47.88538 9.19646 13082 ft 322 kts 146°
2026-05-06 11:54 47.86739 9.21622 12652 ft 321 kts 146°
2026-05-06 11:54 47.84971 9.23564 12282 ft 318 kts 145°
2026-05-06 11:54 47.83200 9.25579 12302 ft 318 kts 144°
2026-05-06 11:54 47.81457 9.27565 12260 ft 311 kts 144°
2026-05-06 11:55 47.79768 9.29475 11713 ft 303 kts 147°
2026-05-06 11:55 47.77858 9.30598 10873 ft 302 kts 175°
2026-05-06 11:55 47.75765 9.30531 10255 ft 297 kts 183°
2026-05-06 11:55 47.73740 9.30320 9818 ft 287 kts 184°
2026-05-06 11:56 47.71779 9.30114 9393 ft 279 kts 184°
2026-05-06 11:56 47.69852 9.29914 8878 ft 276 kts 184°
2026-05-06 11:56 47.67949 9.29723 8291 ft 276 kts 184°
2026-05-06 11:56 47.66058 9.29539 7704 ft 276 kts 184°
2026-05-06 11:57 47.64135 9.29360 7115 ft 276 kts 184°
2026-05-06 11:57 47.62239 9.29190 6548 ft 275 kts 184°
2026-05-06 11:57 47.60328 9.29029 6084 ft 270 kts 184°
2026-05-06 11:57 47.58553 9.28880 5919 ft 243 kts 184°
2026-05-06 11:58 47.56927 9.28743 5655 ft 225 kts 184°
2026-05-06 11:58 47.55465 9.28781 5565 ft 199 kts 161°
2026-05-06 11:58 47.54372 9.29892 5321 ft 192 kts 135°
2026-05-06 11:58 47.53452 9.31327 5010 ft 192 kts 134°
2026-05-06 11:59 47.52533 9.32791 4688 ft 199 kts 133°
2026-05-06 11:59 47.51592 9.34285 4452 ft 200 kts 133°
2026-05-06 11:59 47.50702 9.35853 4167 ft 200 kts 115°
2026-05-06 11:59 47.50391 9.37781 4061 ft 185 kts 99°
2026-05-06 12:00 47.50196 9.39605 3967 ft 173 kts 99°
2026-05-06 12:00 47.50014 9.41355 3754 ft 173 kts 98°
2026-05-06 12:00 47.49845 9.42977 3673 ft 147 kts 99°
2026-05-06 12:00 47.49696 9.44455 3377 ft 148 kts 98°
2026-05-06 12:01 47.49532 9.45958 3142 ft 149 kts 99°
2026-05-06 12:01 47.49400 9.47493 2830 ft 153 kts 88°
2026-05-06 12:01 47.49572 9.49013 2649 ft 150 kts 76°
2026-05-06 12:01 47.49809 9.50508 2499 ft 147 kts 76°
2026-05-06 12:02 47.50037 9.51975 2350 ft 147 kts 76°
2026-05-06 12:02 47.50254 9.53482 2313 ft 151 kts 77°
2026-05-06 12:02 47.50462 9.54995 2302 ft 152 kts 78°
2026-05-06 12:02 47.50657 9.56543 2236 ft 154 kts 79°
2026-05-06 12:03 47.50837 9.58096 2213 ft 152 kts 80°
2026-05-06 12:03 47.51004 9.59647 2175 ft 153 kts 80°
2026-05-06 12:03 47.51164 9.61210 2150 ft 151 kts 81°
2026-05-06 12:03 47.50992 9.62684 2085 ft 150 kts 124°
2026-05-06 12:04 47.50168 9.63562 2062 ft 148 kts 166°
2026-05-06 12:04 47.49159 9.63478 1992 ft 149 kts 207°
2026-05-06 12:04 47.48499 9.62401 2056 ft 140 kts 253°
2026-05-06 12:04 47.48235 9.61007 2010 ft 143 kts 259°
2026-05-06 12:05 47.48156 9.59545 1793 ft 146 kts 273°
2026-05-06 12:05 47.48282 9.58088 1547 ft 139 kts 279°
2026-05-06 12:05 47.48434 9.56717 1314 ft 130 kts 278°
2026-05-06 12:05 47.48533 9.55806 1316 ft 63 kts 278°
2026-05-06 12:06 47.48573 9.55417 1313 ft 14 kts 278°
2026-05-06 12:06 47.48597 9.55331 1313 ft 7 kts 336°
2026-05-06 12:06 47.48643 9.55317 1312 ft 7 kts 318°
2026-05-06 12:06 47.48666 9.55257 1311 ft 4 kts 304°
2026-05-06 12:07 47.48694 9.55249 1311 ft 0 kts
2026-05-06 12:07 47.48696 9.55250 1311 ft 0 kts
2026-05-06 12:07 47.48701 9.55250 1311 ft 0 kts
2026-05-06 12:08 47.48703 9.55251 1311 ft 0 kts
2026-05-06 12:08 47.48711 9.55252 1311 ft 1 kts
2026-05-06 12:08 47.48718 9.55253 1311 ft 0 kts